Theta_e
326 321 315 305 312 309 304 301 294 289 294 290 290 292 292 296 298 297 296 295 296 300 321 325 325 324 317 316 320 324 326 316 312 306 301 320 343 344 346 349 352 352 351 352 352 352 351 352 353 353 352 352 352 351 350 349 349 349 348 348 349 348 350 351 351 351 352 352 352 352 352 352 352 352 352 352 353 353 352 352 352 352 351 352 352 352 352 352 351 350 350 350 350 350 350 349 348
322 314 306 310 313 304 302 296 289 291 287 287 291 289 293 294 296 295 294 295 295 317 324 326 327 328 329 329 329 328 329 331 332 331 336 343 345 346 349 351 351 350 351 352 352 350 350 351 353 353 353 352 351 350 349 349 348 349 349 349 349 349 350 350 351 351 352 352 352 353 352 352 353 352 352 352 352 352 353 352 352 352 352 352 352 352 351 351 351 350 350 350 350 350 349 349 348
323 310 303 308 307 303 299 296 292 286 288 283 287 292 294 293 294 295 295 298 300 324 325 325 327 326 326 326 322 320 318 337 337 339 337 344 338 342 349 351 351 351 351 352 351 349 349 350 353 353 352 352 352 351 350 350 350 349 349 349 349 349 350 351 351 352 352 353 353 352 352 352 352 352 352 352 352 352 351 352 352 352 352 352 351 350 350 351 351 350 350 350 349 349 348 347 346
310 312 305 301 302 296 295 290 286 287 286 285 285 291 292 294 294 296 298 314 323 317 317 324 326 331 324 321 324 330 329 331 338 338 335 339 339 347 350 351 352 352 352 351 351 350 348 351 353 352 353 352 352 351 349 350 349 348 349 349 349 349 349 350 351 351 352 352 353 353 353 353 352 352 352 352 351 351 351 351 351 351 351 351 350 351 350 351 351 351 350 349 349 348 347 345 345
305 308 305 300 297 298 293 292 287 286 287 285 286 289 294 295 295 295 303 311 305 313 320 324 324 331 330 326 328 322 327 336 337 340 339 343 348 349 350 351 351 350 350 350 350 349 348 353 353 353 353 352 351 350 350 349 348 349 349 349 348 349 349 350 351 351 352 352 352 353 353 353 353 353 352 352 352 351 351 351 351 351 351 351 350 350 350 349 350 350 350 349 348 347 345 345 345
300 300 305 302 300 298 293 289 289 288 292 291 289 289 291 294 296 298 299 308 316 326 325 327 322 325 326 329 332 327 335 327 336 337 341 342 347 349 350 351 350 349 349 350 350 348 348 352 353 352 352 352 351 350 349 349 348 349 348 348 347 349 349 351 351 351 352 353 352 352 352 352 352 352 351 351 351 351 351 351 351 351 350 350 350 350 350 350 349 348 348 347 347 345 345 343 344
303 299 296 299 297 294 288 283 285 288 293 292 290 291 294 293 295 297 297 298 312 329 330 328 331 329 324 329 333 337 339 339 336 336 343 346 349 350 351 350 349 348 349 349 349 349 350 353 353 352 352 351 351 350 350 349 348 348 348 347 347 349 350 351 351 351 352 352 352 351 351 352 351 351 351 351 351 351 350 350 350 350 350 350 350 350 349 349 348 347 346 346 346 345 344 343 343
308 300 296 291 289 291 288 285 286 286 289 294 293 294 295 295 295 297 296 298 299 320 327 330 333 329 326 335 324 336 338 339 339 344 347 348 349 349 350 349 347 347 348 349 349 349 352 352 353 352 352 351 350 350 349 348 349 348 348 348 348 348 350 351 351 351 351 352 352 351 352 352 351 351 351 351 351 350 350 350 350 350 349 349 348 347 347 346 346 346 346 346 345 345 344 343 343
301 300 299 293 290 287 283 286 287 288 289 291 293 296 306 299 297 298 296 297 309 322 326 329 328 323 326 329 328 333 335 340 343 346 347 347 347 348 348 347 346 346 347 348 350 350 350 352 353 352 351 351 350 350 349 349 349 348 347 347 348 350 351 351 351 351 351 351 351 351 351 351 351 350 349 349 349 349 349 349 349 349 348 347 346 346 345 345 345 345 346 345 344 344 344 343 343
299 299 292 290 285 288 283 284 285 287 288 290 292 296 296 295 296 298 297 296 300 324 325 331 328 325 329 324 328 332 332 341 343 343 346 347 347 348 347 347 346 345 347 349 349 349 350 353 352 351 351 350 350 349 349 349 348 347 347 347 348 350 350 351 351 351 351 351 350 350 350 350 349 349 348 348 348 348 348 348 348 348 347 346 346 346 345 346 346 345 345 344 344 344 344 343 343
295 294 292 292 286 284 285 283 284 289 290 292 294 297 298 297 296 294 295 296 310 324 328 331 327 326 328 327 329 337 339 341 340 339 344 346 347 346 346 347 347 347 347 348 349 350 350 350 352 351 350 349 349 349 348 348 347 347 347 347 348 350 350 350 351 351 351 351 351 350 350 349 350 350 349 348 347 347 347 347 347 347 346 346 345 345 345 345 345 345 344 344 343 343 344 343 342
294 292 290 283 283 284 283 283 285 288 290 291 293 297 296 298 296 295 294 296 322 325 326 329 325 331 326 326 328 334 337 337 339 342 344 346 345 346 346 347 348 348 348 348 349 349 349 349 349 350 350 350 349 348 348 347 346 347 347 346 348 349 349 350 351 351 351 350 350 350 350 350 350 349 348 348 347 347 346 347 347 346 345 345 345 345 346 345 345 344 344 343 343 343 343 342 342
293 288 285 285 282 285 285 285 285 293 291 290 292 295 295 296 296 297 296 302 324 324 325 327 333 331 322 325 334 334 333 336 340 342 344 344 345 346 346 346 347 347 348 348 347 347 347 348 348 348 349 349 348 347 346 346 346 346 346 348 348 348 348 348 349 350 350 350 350 350 349 349 349 348 348 348 347 347 347 346 346 346 346 346 345 345 346 345 345 344 342 342 342 343 342 342 342
294 291 288 286 284 283 284 285 283 288 286 290 292 295 297 296 295 297 301 314 323 322 327 334 332 331 326 329 329 328 332 338 341 342 343 344 345 345 345 346 346 346 347 346 346 345 345 346 345 345 345 344 344 345 346 345 346 346 347 347 347 348 347 348 349 350 350 350 350 350 349 348 348 348 347 347 347 346 346 346 345 345 344 344 345 346 345 344 344 343 342 342 342 342 342 342 343
300 291 287 285 284 285 284 288 287 286 288 291 294 296 301 319 307 295 311 317 320 330 334 337 334 327 322 325 325 329 334 339 341 343 343 344 344 344 344 345 345 345 345 345 345 344 342 342 342 342 342 340 340 340 341 344 346 346 347 347 347 347 348 348 349 349 349 349 349 349 349 348 348 348 348 347 347 347 346 345 345 345 344 345 344 344 344 344 343 343 342 342 342 342 342 341 342
296 289 287 288 283 284 286 287 286 287 290 291 294 296 315 322 313 302 315 326 325 333 333 327 334 323 330 329 329 333 337 340 342 342 342 342 342 342 343 343 343 344 344 344 343 342 341 341 341 341 340 339 339 339 340 341 344 345 346 347 348 348 348 349 348 348 348 349 349 349 349 348 348 347 348 347 347 347 346 345 344 344 345 344 344 345 345 344 343 344 343 342 342 342 342 342 342
293 291 289 281 283 284 284 287 287 286 288 291 292 296 302 317 324 328 331 332 327 327 331 333 328 335 331 331 335 338 339 341 342 341 340 338 338 338 339 340 340 341 342 342 342 341 341 341 341 340 339 338 339 340 339 338 343 346 345 346 346 346 347 348 348 347 347 347 347 347 344 339 338 339 339 340 346 344 346 345 345 343 344 345 345 344 344 345 344 345 343 342 342 343 341 340 342
297 292 285 284 282 284 287 288 288 291 292 294 295 294 297 316 322 328 332 329 330 330 330 332 334 333 334 336 339 339 340 339 339 337 336 335 336 335 335 337 338 337 338 339 341 341 341 341 341 341 340 340 342 342 341 341 342 344 338 340 341 344 346 346 344 342 347 340 347 341 339 343 336 335 336 345 340 345 344 345 345 345 344 344 344 344 345 345 345 344 343 343 343 340 336 329 330
294 287 286 287 283 288 291 290 291 293 293 293 295 294 297 318 323 324 325 325 327 326 328 330 329 332 335 337 338 338 338 337 337 336 334 333 334 333 334 335 336 336 336 338 339 341 341 341 341 341 341 342 343 343 342 342 340 338 338 340 343 346 345 345 340 342 339 340 340 340 341 337 335 335 335 340 341 345 344 345 345 345 345 344 344 344 345 345 344 344 344 343 340 337 330 329 327
295 291 286 285 288 289 290 292 294 294 295 295 295 295 305 321 321 326 325 324 326 324 324 327 328 327 332 334 336 336 336 336 336 335 334 333 333 333 333 333 334 335 336 338 338 339 340 340 341 342 342 342 342 342 343 341 338 337 339 341 341 342 342 342 338 338 338 339 338 339 337 338 337 332 345 348 347 337 335 342 345 345 345 345 344 338 341 343 343 342 342 341 336 333 330 330 328
294 294 290 290 290 292 294 294 295 296 294 294 294 294 311 320 319 326 325 321 322 325 329 327 327 329 331 334 334 335 334 334 334 334 333 333 334 334 334 334 334 335 336 337 338 337 338 340 341 341 342 342 342 343 342 340 339 337 338 340 340 339 339 337 335 335 336 337 338 339 336 339 333 332 332 333 332 332 331 331 332 332 333 336 341 335 330 331 334 332 333 334 330 333 332 330 329
293 294 292 294 292 292 296 294 294 295 295 294 292 295 300 317 327 325 323 317 317 325 330 332 332 332 332 332 333 334 333 332 333 333 333 333 332 331 333 334 336 336 337 336 336 337 337 339 340 341 342 342 342 341 341 343 339 336 336 338 339 337 336 333 333 335 335 336 337 339 341 335 334 332 332 332 333 332 332 334 332 330 331 334 338 336 331 331 332 332 333 333 333 333 334 333 333
292 292 292 292 295 295 296 296 295 293 294 293 294 297 306 322 322 325 321 320 324 331 333 334 334 334 335 335 334 332 332 331 332 332 333 332 331 331 332 333 332 333 335 335 337 337 337 338 339 340 340 340 340 341 341 339 335 334 335 337 337 336 333 331 331 332 335 336 337 341 337 334 333 333 333 332 332 333 334 333 333 331 330 331 336 334 333 331 332 333 333 333 333 334 334 334 332
295 293 291 294 293 294 295 297 295 293 294 294 296 302 316 321 320 320 324 328 331 334 335 335 335 336 335 333 333 332 332 331 331 333 333 332 332 332 332 333 334 335 335 335 337 338 337 337 338 338 339 339 338 339 338 337 334 333 336 342 335 339 335 330 330 331 335 337 339 339 338 332 331 331 331 331 331 332 333 332 331 331 330 330 332 333 333 332 331 332 333 333 333 333 334 335 333
293 292 293 294 295 293 294 293 293 295 293 294 303 310 314 319 322 327 326 331 333 334 335 335 335 335 334 333 332 332 332 331 330 330 332 332 333 334 334 335 335 335 333 335 337 337 337 337 337 337 339 338 337 337 336 336 336 337 339 336 333 342 332 332 332 334 333 336 338 339 339 332 331 331 332 331 331 332 331 331 331 331 330 331 330 331 332 332 330 331 332 332 332 333 334 334 335
292 295 295 293 295 295 295 293 293 294 294 303 316 318 322 324 328 323 323 332 334 335 334 334 333 332 332 332 332 331 330 329 330 329 330 332 333 332 333 335 335 334 335 337 337 337 337 338 336 336 336 336 336 336 335 335 337 338 338 337 334 340 333 332 334 334 331 331 332 336 339 335 333 333 332 331 331 331 332 333 333 332 331 330 329 329 329 329 329 328 330 332 332 332 333 334 336
293 293 294 294 295 294 293 293 293 293 295 303 316 317 321 319 320 319 327 328 334 333 332 333 332 331 332 331 331 331 329 329 330 331 331 331 332 331 333 335 334 335 336 336 337 337 338 337 335 336 337 338 336 335 334 335 336 336 337 338 338 337 335 337 335 332 332 332 332 334 334 336 333 333 333 333 334 334 333 331 331 332 332 332 330 330 328 329 327 328 329 330 330 331 331 332 333
292 293 292 291 291 291 292 291 292 293 295 300 321 316 301 305 323 322 327 325 335 331 331 331 331 331 331 330 329 329 330 331 332 331 329 330 330 331 332 333 334 335 335 336 338 339 338 337 337 337 337 337 335 335 336 334 334 335 337 338 338 337 338 335 336 337 337 336 335 333 333 333 335 332 332 333 335 335 335 334 333 332 332 332 331 330 329 329 328 327 328 329 330 330 331 331 332
293 293 291 288 289 292 290 292 293 293 295 311 312 308 306 295 316 326 328 325 330 332 330 331 331 331 330 329 329 330 330 331 331 330 330 331 333 334 333 336 336 335 337 338 339 339 338 338 337 337 338 337 336 335 335 335 335 336 336 336 337 338 338 338 337 337 337 337 337 335 333 334 335 333 331 332 334 334 335 335 335 334 333 333 332 332 332 330 330 329 329 330 329 329 329 330 331
294 290 289 289 284 286 289 292 292 295 295 317 307 296 291 293 318 323 321 323 325 329 329 330 330 326 324 329 329 328 329 329 329 330 332 332 333 335 335 336 337 336 337 339 339 338 339 340 339 338 337 336 336 337 336 334 334 335 336 335 338 337 337 337 337 336 337 336 336 335 336 336 336 333 333 332 331 331 332 334 334 334 333 333 333 332 332 330 330 329 330 329 332 331 329 330 330
289 289 286 284 285 284 288 291 293 293 295 311 295 288 291 314 319 321 321 322 321 319 318 319 320 321 324 326 327 327 327 328 328 330 331 333 334 336 336 337 337 338 338 338 337 338 339 338 339 338 337 335 338 337 337 335 335 336 336 335 336 336 336 336 336 335 335 335 334 332 334 335 337 336 336 334 332 332 332 332 333 333 333 334 334 333 332 330 329 329 329 329 328 328 328 329 331
287 286 282 280 284 282 287 291 292 293 293 294 296 290 304 315 320 321 322 320 319 315 317 319 317 319 322 324 325 325 325 327 328 328 329 331 333 334 336 336 338 338 337 337 338 339 338 337 338 337 337 335 337 337 336 335 337 336 335 338 334 334 334 333 334 335 335 336 336 333 333 334 335 333 333 333 332 332 332 332 332 333 334 335 334 332 332 331 329 329 330 329 328 329 328 328 328
281 285 280 284 283 282 287 293 291 293 292 292 294 287 310 315 323 323 323 320 317 316 316 316 316 319 320 323 324 324 324 325 326 327 329 330 331 333 334 336 336 337 337 338 338 337 337 338 340 337 336 336 336 335 335 335 335 335 336 337 338 336 334 332 331 331 333 334 335 335 334 334 334 332 332 333 333 333 333 333 333 333 335 335 332 331 330 330 330 331 330 330 329 328 329 328 328
283 282 282 281 284 283 285 286 290 289 292 291 300 309 313 314 322 323 325 322 319 316 317 317 318 319 320 322 325 324 324 324 324 327 328 329 330 331 333 335 334 336 337 337 337 336 336 337 339 339 337 337 336 335 334 335 336 333 331 332 338 337 335 334 332 331 332 332 333 334 334 335 335 333 332 333 334 335 335 333 333 334 334 334 334 333 333 331 330 330 330 330 329 329 328 328 328
278 282 283 284 284 284 284 286 290 292 296 293 296 308 311 307 318 321 320 322 317 316 317 317 317 321 320 322 324 324 324 324 325 327 328 329 330 330 331 332 333 334 334 335 335 335 334 334 333 334 335 335 335 336 336 334 333 329 327 329 332 333 333 333 332 332 331 331 331 333 334 335 335 334 333 333 332 333 333 333 333 333 332 333 333 333 333 332 332 330 329 330 330 330 329 329 328
283 282 281 281 284 284 285 285 287 293 300 302 299 301 302 310 315 311 313 315 314 313 315 318 321 322 322 324 324 324 325 325 327 328 329 330 330 331 331 332 332 333 333 334 334 334 334 334 335 334 334 334 335 336 332 328 328 328 327 328 328 329 329 332 331 331 331 331 332 332 332 331 334 334 334 334 333 334 334 334 334 334 332 332 332 331 332 332 331 331 331 331 330 330 330 329 328
284 283 282 282 282 283 284 286 289 301 301 306 305 301 303 307 307 310 312 314 313 312 316 320 322 322 323 323 324 324 324 324 328 329 330 330 331 332 332 332 333 333 333 333 333 333 333 333 332 331 333 334 332 331 331 329 327 329 329 326 326 326 331 332 332 331 332 332 332 331 332 332 332 333 335 333 333 334 334 333 332 332 332 332 331 331 332 332 332 332 331 331 329 328 328 328 327
285 283 284 284 283 284 287 287 293 305 300 305 307 306 307 308 309 308 310 311 310 312 316 319 317 318 322 322 321 321 322 325 325 325 325 326 327 327 328 329 330 327 328 328 328 329 329 329 327 326 326 328 329 328 328 328 325 325 326 325 326 328 331 331 331 331 332 332 332 332 332 332 333 333 334 332 333 332 332 332 332 332 332 332 333 333 333 333 332 332 332 329 330 328 327 329 329
285 285 282 283 283 283 286 295 305 307 307 305 307 305 306 307 309 309 310 310 311 314 314 314 314 314 318 320 320 320 321 320 321 322 323 323 324 324 324 325 325 325 325 326 326 326 325 325 325 325 325 326 327 330 328 326 327 329 329 329 329 330 333 334 332 331 331 331 331 332 332 332 332 332 332 333 330 329 330 331 332 332 332 332 331 330 330 330 331 331 330 328 327 329 328 330 329
283 281 283 282 281 285 283 293 304 307 306 305 305 304 305 308 310 309 310 310 312 315 316 316 316 314 317 319 319 319 319 319 318 319 320 321 322 322 322 322 323 324 324 324 323 323 323 324 324 324 324 324 325 328 329 328 330 330 330 330 331 331 330 333 331 330 329 329 328 330 331 331 331 330 330 331 331 330 330 330 330 330 330 330 330 328 328 328 329 329 329 329 328 325 327 327 331
285 284 280 282 284 284 284 295 302 308 310 309 306 304 303 306 305 307 310 313 314 314 316 315 317 317 319 319 319 319 318 318 317 318 319 319 320 319 320 321 321 321 322 322 323 323 323 323 324 324 323 323 323 325 325 327 327 326 326 327 327 327 329 327 326 326 327 329 328 327 329 330 330 330 330 330 331 329 329 328 327 327 327 326 328 328 328 328 329 329 329 328 327 326 325 327 328
283 284 285 284 283 297 298 298 297 296 298 305 300 291 295 303 305 306 309 310 309 312 311 312 314 316 316 315 316 318 318 318 317 317 317 317 317 318 319 319 319 319 320 321 323 323 323 323 323 323 322 322 322 323 324 325 325 325 325 324 323 323 321 322 322 323 324 325 326 328 328 329 329 328 328 329 329 331 329 328 327 327 328 328 328 329 329 329 329 329 330 329 328 328 326 325 324
281 283 286 285 290 299 296 295 292 285 285 299 299 286 287 301 302 305 307 308 307 309 310 311 313 314 315 315 315 315 315 315 317 317 317 316 316 316 317 317 318 318 319 321 322 322 322 322 322 322 321 321 322 322 323 324 323 324 325 324 323 322 321 321 324 324 324 325 325 326 326 327 327 327 327 327 327 329 329 329 329 329 330 330 331 330 329 329 329 329 331 330 329 329 328 324 324
280 284 287 286 296 297 295 293 289 286 294 298 297 293 290 292 300 307 307 306 305 306 308 309 311 312 313 314 314 315 315 315 314 314 315 316 316 316 316 317 317 318 319 320 320 321 320 320 319 319 320 320 319 320 321 323 321 322 322 322 323 321 321 320 321 322 323 324 322 322 323 323 324 324 324 324 325 327 329 329 330 329 328 329 330 329 328 329 329 330 331 331 330 330 328 326 325
282 285 288 287 290 295 295 292 289 288 289 285 294 296 290 293 300 307 306 302 303 304 306 309 310 310 311 312 313 314 314 315 314 314 314 315 315 315 316 315 317 317 318 318 319 319 319 319 318 318 318 319 319 319 319 319 321 320 320 320 319 321 321 320 320 320 319 320 318 319 320 320 321 321 321 320 322 324 326 327 325 324 324 325 327 326 326 326 327 327 328 328 329 329 329 329 327
287 287 289 288 287 287 294 289 289 287 286 280 290 293 285 288 299 301 305 303 301 303 307 309 310 310 311 312 312 312 313 313 314 314 314 314 315 314 315 316 315 316 317 318 317 318 317 316 316 315 315 316 317 316 316 316 317 318 317 317 316 316 317 317 317 316 316 316 315 315 317 316 317 317 317 317 317 318 320 322 321 320 321 322 320 318 317 317 319 322 325 327 328 328 330 329 327
289 289 286 285 283 283 284 283 285 284 280 281 292 294 287 284 296 300 300 301 303 305 308 310 311 311 311 311 311 311 311 312 312 312 313 314 314 314 314 313 314 314 315 316 315 315 315 314 313 312 312 313 313 313 314 314 315 315 314 313 312 312 313 313 313 313 312 311 311 311 311 312 313 313 313 314 312 313 314 315 315 317 318 314 313 312 313 313 314 317 321 322 324 325 326 327 327
290 285 282 283 281 280 279 278 283 278 274 281 292 294 289 284 289 300 304 306 307 306 307 308 308 308 309 310 310 311 311 311 312 312 312 313 313 312 312 312 312 313 314 314 313 314 314 313 312 310 310 310 310 311 311 311 312 312 312 311 309 309 309 309 309 309 309 307 307 307 308 308 308 309 309 309 309 309 310 310 312 313 311 310 310 309 309 310 312 314 316 316 317 320 319 320 322
288 285 284 280 275 277 275 280 274 275 276 283 285 292 288 284 287 302 304 303 306 308 309 309 308 308 308 309 309 310 311 311 311 311 311 312 312 311 311 311 312 312 312 312 313 313 312 311 310 308 308 309 309 309 308 309 309 309 309 309 309 309 307 307 307 306 307 306 306 305 305 305 305 305 306 305 306 307 307 307 308 309 308 307 310 308 307 307 308 310 311 312 312 314 314 313 316
285 285 281 278 273 273 270 271 272 275 278 282 286 292 286 287 295 299 303 305 308 310 310 310 309 308 308 308 309 309 310 310 310 310 310 310 311 312 312 311 310 310 311 312 312 312 311 310 309 308 307 307 308 307 307 307 307 307 308 308 307 307 306 306 306 305 305 305 305 304 304 304 303 304 304 304 305 306 306 306 307 306 304 304 305 304 305 305 305 305 307 307 308 310 310 310 312
284 284 285 280 276 274 269 273 272 273 276 280 287 288 281 287 290 302 303 307 310 311 310 310 310 309 308 309 308 309 308 309 310 309 309 309 310 311 310 310 309 310 310 311 310 310 310 308 307 306 306 307 306 306 306 306 306 306 306 306 307 307 306 305 305 306 304 304 304 303 303 303 303 303 304 304 305 304 304 305 306 303 302 301 301 301 301 301 301 302 303 304 305 306 306 308 309
284 284 285 280 283 278 279 274 276 277 280 279 285 282 290 293 302 304 308 310 309 310 309 308 307 307 307 307 307 307 308 308 309 309 309 309 309 309 308 308 308 309 310 310 309 309 307 306 306 306 305 305 306 306 305 305 305 305 305 305 305 307 307 305 305 305 304 304 303 303 302 302 303 303 304 303 303 303 303 303 304 302 301 300 300 300 300 299 300 300 300 300 300 303 302 303 305
284 286 283 285 286 281 274 276 280 276 278 277 282 288 294 302 303 305 308 307 307 307 307 306 305 306 306 305 306 306 307 307 307 308 308 308 308 308 308 307 308 308 308 307 307 307 306 306 305 305 305 305 305 305 304 304 304 304 304 304 304 304 304 303 303 303 303 303 303 302 302 302 302 302 303 304 302 303 303 304 303 301 300 300 299 299 299 298 299 299 299 299 299 300 301 300 301
285 281 285 288 290 286 281 275 272 270 274 278 285 287 290 289 285 303 304 303 304 304 304 304 304 305 304 304 305 306 306 307 308 308 308 308 307 307 307 308 308 308 307 306 306 307 306 306 306 305 304 303 303 304 304 303 303 303 303 303 303 303 303 303 303 302 303 302 302 302 301 301 300 301 302 303 302 302 302 302 301 300 300 299 299 298 298 298 298 297 298 298 299 300 300 300 301
289 286 289 288 279 280 279 276 272 272 272 276 283 288 290 289 289 299 299 300 301 302 302 302 302 303 303 304 305 306 306 306 306 306 306 306 306 305 305 305 306 306 307 307 307 308 307 307 306 304 303 303 303 304 304 304 304 303 303 303 302 303 303 303 303 303 302 302 301 301 301 300 300 301 301 300 300 300 300 300 300 299 298 298 298 297 298 297 297 296 297 297 298 299 299 299 300
289 290 289 289 287 282 278 278 278 279 274 276 279 287 283 293 294 301 300 302 302 301 301 301 302 302 303 303 304 304 305 305 305 306 306 305 305 305 304 305 306 306 307 307 307 307 306 306 305 304 303 303 303 302 303 302 303 303 302 302 302 302 303 302 302 302 301 301 301 301 300 300 300 301 299 300 300 300 300 299 299 298 297 297 297 297 297 296 296 296 296 296 297 298 297 298 299
283 284 282 285 286 285 285 281 280 279 275 274 278 281 284 288 299 302 303 303 303 302 300 301 302 302 303 304 304 304 304 305 305 305 304 304 303 304 305 305 306 306 307 306 306 305 305 304 303 303 302 301 301 302 302 302 302 301 301 300 300 300 300 301 301 302 301 301 301 302 300 300 300 300 300 299 299 299 299 299 298 298 297 296 296 296 296 296 295 295 295 296 296 297 297 297 299
285 285 282 284 282 281 280 278 284 282 279 276 279 278 282 286 296 304 303 305 303 304 302 301 302 302 303 303 304 304 304 305 305 304 304 303 303 304 304 305 305 305 305 304 305 304 304 303 302 301 301 301 301 301 301 301 301 301 300 300 299 300 300 300 300 300 300 300 301 301 301 300 299 299 300 299 299 299 299 298 298 297 297 296 296 296 295 295 294 294 294 295 295 295 296 297 298
Wind_Speed
6 5 4 3 1 1 2 6 1 3 2 3 1 1 6 0 2 3 3 5 6 1 2 3 4 4 1 2 8 9 5 3 1 7 4 1 3 6 7 10 11 10 11 9 8 8 9 14 17 17 16 15 15 15 15 14 14 13 13 13 13 14 14 14 14 13 13 13 13 13 13 13 12 12 12 13 13 12 12 12 13 13 13 13 13 13 12 13 14 14 14 15 15 16 15 15 14
4 6 3 2 1 1 1 0 3 1 4 1 6 1 6 2 4 6 3 3 2 1 3 5 9 12 15 14 11 4 8 7 3 2 3 4 6 5 8 12 11 12 9 8 7 7 7 11 17 17 16 15 15 15 15 15 14 13 13 13 14 14 13 13 14 14 12 12 13 13 12 12 12 12 13 13 12 11 10 12 12 13 13 13 12 13 12 14 14 14 14 14 15 15 15 15 14
4 6 5 3 3 4 2 3 3 1 3 5 7 7 2 3 6 6 4 4 2 4 1 1 3 6 4 3 7 4 1 3 6 3 4 8 10 5 8 9 8 9 10 7 7 7 6 9 15 16 17 16 15 15 15 14 13 13 13 14 14 14 13 13 13 12 12 12 12 12 12 12 12 12 13 12 12 11 11 10 13 12 12 12 12 12 12 14 14 14 13 14 14 14 14 13 12
2 2 1 2 0 4 2 3 4 7 3 6 7 5 5 5 2 2 2 3 8 2 1 3 6 4 4 9 5 6 6 2 1 6 6 9 4 8 9 9 9 8 8 6 7 6 5 11 14 16 16 16 16 15 15 14 13 14 13 14 13 12 12 13 12 12 12 12 12 12 12 12 12 12 13 13 12 11 11 10 11 12 12 12 12 12 12 13 13 13 14 13 13 13 13 12 11
2 2 2 3 4 1 2 1 3 4 6 5 6 5 5 2 0 3 0 2 2 2 3 1 3 5 3 7 1 2 4 5 5 1 3 2 4 8 9 9 9 9 8 8 7 6 6 15 13 14 15 16 15 15 15 14 14 13 13 13 13 12 12 12 12 11 12 12 12 12 12 12 12 12 13 13 12 12 11 11 11 12 12 12 11 10 11 11 12 13 13 13 12 13 12 11 10
2 2 3 1 0 2 5 1 0 6 7 5 3 4 1 1 3 1 4 4 1 3 1 2 3 4 3 4 1 4 7 5 2 3 3 4 7 8 9 8 8 9 8 7 6 5 6 13 12 13 15 15 15 15 14 14 14 13 13 13 13 12 12 12 11 11 12 12 11 12 12 12 12 12 13 13 12 12 11 11 10 11 11 11 10 10 10 10 11 12 12 12 12 12 11 10 9
0 4 5 4 2 4 5 4 6 6 9 5 4 3 3 1 1 2 6 5 0 7 3 3 7 5 7 1 3 3 4 2 3 2 3 7 9 9 8 8 9 9 8 7 6 5 7 10 11 11 14 15 15 15 14 14 14 13 13 13 12 11 12 12 11 11 12 12 12 12 12 12 12 12 12 12 11 11 11 10 11 10 10 9 9 9 10 10 11 12 12 12 12 11 10 10 9
1 2 1 2 1 1 1 2 5 6 6 6 2 2 3 3 2 2 5 1 4 2 3 5 1 4 4 1 2 2 5 4 5 9 10 9 10 9 7 7 8 9 8 7 6 5 10 11 10 12 14 14 14 14 14 14 14 13 13 11 11 11 11 11 11 11 11 12 13 11 12 12 12 11 11 11 11 11 11 10 10 10 9 10 9 9 9 10 10 11 11 11 10 10 10 10 11
4 6 0 4 2 2 1 4 6 3 5 2 6 5 7 4 3 1 5 3 2 2 6 3 1 4 3 7 2 2 2 4 8 11 11 11 11 9 6 6 9 8 8 7 6 5 7 11 10 11 13 13 14 14 14 14 13 13 12 12 10 8 10 10 11 11 11 11 11 12 11 11 12 11 10 10 10 9 9 9 9 9 9 8 8 8 8 9 10 10 11 10 9 9 10 10 12
2 2 1 2 4 4 1 6 2 5 4 4 5 8 7 4 4 6 6 4 5 5 2 2 3 7 8 8 4 3 1 6 10 11 11 11 10 8 9 8 8 10 9 8 6 7 6 13 11 11 11 12 13 13 13 12 12 12 11 10 9 9 10 11 9 10 11 11 11 11 11 11 11 11 11 10 10 9 8 8 7 8 8 8 7 7 7 8 9 10 10 10 9 9 9 11 11
0 5 2 3 1 2 6 7 4 5 4 3 6 11 10 4 5 3 6 5 2 6 4 10 6 11 6 5 1 3 6 7 10 12 11 10 9 10 8 8 8 7 10 9 8 7 6 8 15 11 10 12 12 11 12 12 12 11 10 9 10 10 10 9 10 10 10 10 11 11 10 12 11 12 12 11 10 9 8 8 8 7 7 7 6 6 7 7 8 10 10 9 8 8 8 9 10
1 1 1 2 3 7 5 4 3 6 6 2 6 1 3 7 4 2 5 6 3 5 7 3 7 8 8 5 1 3 5 5 6 11 10 9 8 8 8 6 7 8 8 10 9 7 7 7 7 12 13 13 13 13 12 12 12 11 9 10 10 10 9 8 9 10 10 10 10 9 9 11 11 11 11 10 9 8 8 8 7 6 6 5 5 5 6 7 8 9 9 8 8 8 8 8 9
3 1 5 3 3 1 1 1 5 3 4 4 4 2 2 5 8 11 9 8 8 9 4 4 14 4 5 4 2 4 5 3 6 9 10 8 9 8 8 8 8 9 8 8 9 8 7 6 6 6 10 15 13 12 12 12 12 10 10 11 10 10 9 9 10 12 11 10 10 10 10 11 11 11 10 10 9 8 7 7 6 6 5 4 4 5 6 7 7 8 8 8 8 8 8 8 9
4 6 6 3 1 1 2 3 0 2 5 3 3 4 4 1 5 9 8 7 9 9 3 12 7 7 7 7 3 4 5 6 9 8 9 9 8 8 9 7 8 8 9 8 9 8 7 6 6 5 7 7 6 10 12 13 12 11 11 10 10 10 9 9 11 11 10 10 11 11 9 9 10 10 9 9 8 7 7 6 6 5 5 4 4 5 5 6 7 7 8 8 8 8 8 9 9
1 2 3 1 1 1 3 2 4 4 6 2 2 3 4 3 3 4 13 11 2 2 8 3 5 5 7 11 5 8 8 10 10 10 10 10 10 9 9 8 8 8 8 8 9 8 7 7 6 6 6 5 5 5 4 8 12 12 11 11 10 10 9 10 11 11 10 9 10 10 9 9 9 9 9 7 7 6 6 5 5 4 4 4 4 4 4 5 6 6 8 8 8 8 9 9 8
4 4 2 2 3 3 4 3 0 1 7 1 4 4 3 3 1 4 2 6 5 4 5 5 1 1 8 9 10 11 13 12 10 11 11 11 9 8 9 8 8 8 7 8 8 6 6 7 6 6 6 5 4 4 5 5 9 12 11 12 11 10 10 10 9 8 9 9 9 8 8 6 6 5 7 5 5 6 5 3 3 3 3 3 2 3 5 4 5 6 7 7 8 8 10 9 8
2 4 0 1 4 3 4 3 3 3 6 4 5 6 4 2 3 3 4 7 18 5 5 3 1 1 12 2 11 15 14 13 12 13 12 9 9 9 8 7 8 7 5 6 6 6 7 7 7 5 5 4 4 4 4 4 7 10 10 11 10 10 10 9 8 8 7 7 6 7 6 4 4 3 3 3 4 2 3 3 3 2 2 1 2 3 3 4 4 6 7 7 7 10 8 8 8
2 2 3 3 4 3 4 4 6 1 2 6 6 4 3 1 2 2 11 11 11 9 8 3 10 9 9 10 14 14 14 14 14 14 12 11 9 9 9 7 9 8 7 7 6 6 7 6 8 6 5 5 5 4 3 3 4 6 3 3 4 6 7 7 5 3 5 3 6 4 3 2 3 3 3 3 2 2 2 2 2 2 1 1 2 2 2 3 5 5 6 7 8 10 8 4 5
3 1 3 8 5 6 5 3 5 1 6 5 8 4 2 3 4 1 7 7 10 10 5 5 11 11 13 13 14 14 14 14 14 13 14 14 11 12 10 9 8 8 7 6 6 7 5 6 6 7 7 6 5 4 3 3 4 3 3 3 3 5 4 4 3 3 3 4 3 3 3 3 3 2 1 2 1 1 0 2 2 1 1 2 2 2 2 2 3 5 6 7 7 8 5 3 4
4 5 5 6 6 4 4 3 5 5 6 8 8 3 1 5 1 2 6 11 7 13 10 7 10 14 16 14 15 13 13 14 13 13 14 14 12 11 11 11 7 8 7 6 6 6 5 5 6 6 6 6 4 4 4 4 3 3 3 4 4 4 4 3 3 3 3 3 2 2 2 3 3 1 3 4 1 1 2 4 3 3 4 4 5 4 5 4 6 6 6 6 4 4 4 3 4
1 3 5 3 4 2 5 6 9 9 3 4 4 4 3 3 0 4 10 10 2 5 13 20 16 19 18 16 15 13 14 15 13 12 12 12 8 6 7 6 8 6 5 5 6 5 5 5 5 5 5 5 4 4 5 4 3 3 4 4 4 4 4 3 3 3 3 3 2 2 2 2 2 2 2 2 2 1 1 2 2 2 1 2 4 3 2 2 3 3 3 3 2 3 4 3 3
3 6 4 4 1 1 8 6 7 3 2 2 4 6 1 1 4 7 8 12 12 15 13 1 19 20 23 18 15 13 14 14 15 11 11 10 9 7 7 6 6 6 6 5 6 6 5 6 5 5 5 5 4 4 4 5 5 3 3 4 4 3 3 2 2 2 2 2 2 2 2 2 3 2 2 2 2 1 1 0 0 0 1 1 2 2 3 2 2 2 2 3 2 2 3 3 3
3 2 3 5 5 5 1 1 1 2 2 5 9 1 0 1 5 4 2 2 4 3 3 7 7 18 16 15 16 16 13 14 12 11 10 11 10 8 8 5 6 7 5 5 5 4 6 6 6 5 4 4 4 3 3 3 3 3 3 4 4 3 2 2 2 2 1 2 2 2 2 2 2 2 2 1 1 1 1 1 1 0 1 1 1 2 3 3 3 3 2 2 2 2 2 4 3
3 4 0 4 4 8 5 6 5 2 1 6 6 1 3 7 8 0 3 4 4 8 11 14 15 15 15 14 13 13 11 10 11 8 8 9 9 9 7 8 6 4 6 7 6 5 5 6 5 5 4 4 3 4 4 3 2 3 2 4 3 4 3 2 2 2 2 2 2 2 3 2 1 0 2 3 3 2 1 1 1 2 2 2 1 1 3 3 3 2 3 4 4 3 4 2 4
3 3 2 4 1 5 5 5 5 0 4 8 4 2 2 3 6 3 5 4 8 12 13 16 15 14 13 12 12 13 11 9 9 9 7 6 7 8 7 6 7 6 8 7 6 6 6 5 5 5 4 5 4 4 4 2 2 2 2 2 3 4 3 2 2 2 2 2 2 2 3 2 1 1 1 2 2 3 3 2 1 2 2 3 2 2 3 4 3 2 2 3 4 4 4 4 3
4 5 3 3 4 6 5 5 6 2 2 1 3 6 7 10 10 7 5 8 10 13 14 14 14 16 15 12 11 9 9 10 10 10 9 9 8 9 8 7 7 7 7 8 7 6 6 5 6 6 5 5 4 4 3 3 2 3 2 2 2 3 2 2 2 2 1 2 2 2 2 3 2 1 1 0 0 3 3 3 3 3 3 2 2 4 2 3 4 4 3 3 4 5 5 5 4
2 4 4 5 7 4 4 3 1 2 3 5 4 4 5 2 2 2 3 2 12 12 12 11 13 15 12 10 9 8 10 12 12 10 10 9 9 8 8 7 7 7 6 8 7 6 5 6 6 6 6 6 4 4 4 3 2 3 2 2 2 2 2 3 2 2 1 1 1 2 3 2 2 1 1 1 1 1 3 3 4 3 4 2 1 3 3 3 3 3 4 4 4 4 5 4 4
3 3 2 4 5 4 6 4 8 2 2 4 10 4 0 4 2 7 7 1 9 11 12 12 11 12 10 11 9 10 10 8 9 10 12 11 8 8 9 7 7 7 5 7 6 6 6 6 6 5 5 5 5 4 4 3 2 3 2 3 3 2 2 2 2 1 1 1 1 1 1 1 1 2 2 2 2 2 2 2 2 3 4 4 2 1 2 2 2 3 3 2 3 3 4 4 3
1 1 2 5 6 3 1 4 2 5 1 5 5 7 1 4 3 10 10 6 7 11 10 11 8 7 10 11 11 9 9 9 9 8 8 7 6 5 8 6 7 7 4 6 7 7 7 6 6 6 5 5 5 5 3 3 2 2 2 2 1 1 2 1 1 1 1 1 2 1 1 1 2 3 3 3 2 2 2 2 1 2 3 4 3 3 1 1 1 2 3 1 2 2 3 5 3
0 2 1 4 5 4 5 1 1 1 1 11 5 3 5 4 1 8 4 6 7 12 9 9 6 4 5 6 11 10 10 10 9 8 7 7 6 5 7 7 7 7 6 4 6 7 5 4 4 4 5 5 5 4 4 2 2 2 1 1 1 1 1 1 2 1 1 0 0 1 1 2 3 2 3 3 2 3 3 2 3 2 2 2 2 4 4 2 3 3 4 3 3 3 4 5 4
3 1 3 0 0 3 2 1 1 5 1 10 2 4 4 2 5 5 5 8 13 13 10 8 11 11 7 3 9 11 11 8 9 9 9 8 6 5 7 7 8 8 6 6 6 6 6 5 5 4 4 4 4 4 4 2 1 1 1 0 1 1 0 2 2 1 1 0 1 1 1 3 3 3 3 3 3 2 3 3 2 2 1 1 1 2 3 4 3 4 3 4 4 4 4 4 4
1 2 3 4 3 5 8 2 4 6 1 1 4 1 4 6 7 8 8 6 7 9 11 13 11 7 9 5 9 10 9 9 9 9 8 7 6 6 7 8 7 7 7 6 6 6 6 4 4 4 4 3 2 2 2 2 1 0 1 1 1 1 0 1 1 2 1 2 1 2 1 2 3 4 3 3 3 2 2 3 3 2 2 1 2 1 1 3 3 4 3 3 4 5 4 5 3
5 2 2 2 1 4 6 1 2 4 3 3 3 3 5 3 5 8 7 6 6 10 9 13 13 6 4 4 7 9 9 9 9 8 8 7 6 5 6 6 6 6 5 6 6 6 5 4 5 4 4 3 4 3 4 3 2 1 0 1 2 1 1 1 1 1 2 1 1 1 1 3 4 4 4 4 3 4 2 3 3 2 2 2 2 1 1 2 3 3 4 2 2 4 5 6 4
2 2 2 3 3 2 2 6 1 3 2 2 4 7 6 1 10 10 8 7 6 11 12 11 9 8 6 1 7 7 7 8 9 8 8 7 7 8 6 7 7 6 6 6 5 5 5 4 4 4 4 4 3 3 3 3 2 2 1 0 0 1 1 1 1 1 1 2 1 0 1 2 3 4 4 3 3 4 3 2 2 2 2 3 4 4 3 1 2 2 4 3 3 3 5 6 6
4 3 1 1 1 2 4 1 1 1 7 9 1 5 8 1 7 7 2 6 7 9 13 12 9 10 9 2 7 8 7 8 8 6 8 8 8 7 7 7 7 7 6 6 6 6 5 5 6 6 6 5 4 3 3 3 3 2 1 2 3 2 2 2 1 3 2 1 2 2 2 1 2 3 4 3 2 2 2 3 3 3 2 3 3 4 4 3 2 2 3 3 3 4 5 5 5
6 7 6 3 5 3 2 4 3 2 5 8 5 6 4 5 8 10 13 15 11 11 4 6 9 9 11 8 7 7 8 9 7 8 9 7 7 8 7 7 6 6 6 6 7 7 7 6 6 6 5 4 5 4 4 4 3 3 2 4 4 4 3 3 3 3 4 4 2 2 3 3 2 2 3 2 2 2 2 3 3 4 3 2 3 4 4 4 4 5 5 4 4 4 4 4 3
4 3 4 3 2 3 4 3 3 4 6 9 3 5 6 7 6 8 9 15 9 5 2 7 9 9 10 11 11 11 9 9 7 9 8 8 8 8 7 7 8 9 8 9 9 8 7 6 7 7 5 5 5 5 3 2 1 1 2 1 1 2 3 4 5 4 5 4 4 3 3 3 2 1 1 1 1 2 1 2 3 4 3 3 3 4 4 4 4 4 4 3 3 5 3 3 4
4 3 2 0 1 2 0 3 8 6 5 5 5 11 9 7 7 6 3 11 9 7 8 6 4 1 7 12 12 10 10 10 10 9 10 9 9 9 9 8 9 10 8 9 9 8 8 8 8 5 4 5 5 4 4 3 1 2 2 1 2 2 4 6 7 7 5 6 7 6 5 4 4 4 4 2 2 1 0 1 2 2 2 2 2 3 4 4 5 5 4 4 2 4 4 2 2
2 2 1 1 5 2 3 3 5 6 7 3 4 10 7 7 8 7 5 4 9 6 3 4 10 8 2 8 12 12 9 9 10 9 9 9 10 11 9 8 8 9 9 8 7 9 8 7 5 5 5 5 5 4 4 4 2 2 3 3 4 4 3 4 6 5 6 7 8 7 6 6 6 6 5 4 3 2 2 3 3 3 3 3 4 5 5 5 5 6 6 6 7 3 4 4 4
4 3 2 4 3 2 2 3 4 5 2 7 4 11 4 6 9 9 5 3 7 9 4 6 6 3 5 4 10 11 9 10 9 8 8 8 8 10 9 8 6 8 8 7 7 8 6 6 5 6 5 4 5 5 5 5 6 5 5 5 5 6 4 4 6 7 7 8 9 8 8 7 7 7 6 6 5 5 5 4 4 3 4 3 4 4 5 5 5 5 5 6 6 6 3 2 4
0 5 4 3 1 1 2 2 3 6 10 8 12 7 4 3 5 5 5 4 10 8 6 7 7 6 3 5 10 7 9 10 7 8 8 9 9 10 10 6 7 9 7 7 7 7 5 6 6 6 7 6 5 6 7 5 5 5 4 4 4 4 4 6 8 8 6 5 7 9 7 8 8 8 7 7 6 6 5 4 4 4 4 4 3 4 4 5 6 5 5 5 5 5 6 3 2
2 3 6 5 2 6 3 3 3 4 2 2 3 4 1 2 4 5 4 4 8 5 7 8 6 6 4 7 6 6 9 9 7 7 8 9 9 9 9 7 9 7 8 6 6 7 7 7 7 8 7 7 7 5 6 8 7 5 6 6 6 6 7 7 8 7 7 8 7 3 7 8 8 8 7 7 6 6 6 5 5 5 6 5 4 4 4 5 6 7 6 6 6 5 6 8 5
5 6 6 4 5 6 5 3 4 1 3 5 2 5 1 2 5 5 5 6 8 5 6 3 8 7 4 5 2 5 8 8 8 8 7 10 8 10 7 9 8 9 7 5 7 7 8 8 8 8 8 7 6 6 6 8 9 7 8 7 6 6 6 5 4 5 5 5 5 7 7 7 8 9 8 8 8 7 6 6 6 6 6 6 6 4 5 5 5 6 6 6 6 6 7 5 6
4 2 8 7 8 7 4 4 1 2 1 3 1 2 5 2 4 5 7 8 7 7 6 3 3 9 8 5 2 6 7 8 8 8 8 8 7 9 9 8 8 7 5 6 7 7 9 8 8 9 7 7 6 7 8 7 8 7 7 8 7 7 6 5 6 5 5 5 6 8 7 7 9 9 9 10 9 9 8 8 8 8 8 8 7 7 7 6 5 5 6 6 5 6 7 7 7
4 3 9 8 9 6 5 2 2 2 4 1 3 0 5 1 4 6 9 9 7 8 9 8 8 7 13 7 4 6 8 8 9 8 9 8 7 7 7 9 7 7 6 6 7 7 7 7 8 8 9 9 9 9 8 8 8 7 7 6 7 6 5 5 5 6 6 6 8 8 7 7 8 9 10 10 10 10 9 9 9 9 10 9 8 8 9 10 10 8 8 8 7 6 6 6 7
2 5 3 2 3 3 5 3 1 1 2 3 6 3 4 0 7 6 7 7 9 9 11 11 9 10 7 8 5 6 9 8 7 9 9 7 6 7 7 8 8 7 6 6 6 7 7 7 9 11 10 9 8 9 9 10 9 8 9 8 8 6 6 6 6 7 7 7 8 9 8 8 8 9 9 11 10 10 10 10 9 10 10 10 9 10 11 11 10 9 9 9 8 8 5 5 6
6 8 5 3 4 3 3 5 4 2 1 4 9 6 6 2 7 10 12 11 14 9 8 9 11 10 10 8 7 8 8 6 8 8 8 7 5 7 7 9 7 7 6 7 7 7 7 8 9 12 9 8 9 9 10 10 9 9 9 9 10 9 9 8 7 8 8 9 8 9 9 8 8 9 8 9 11 11 10 10 10 9 10 9 8 10 9 8 7 8 9 10 10 10 8 9 7
10 3 4 6 2 3 3 3 3 2 4 2 6 9 5 6 3 6 7 1 10 17 15 16 15 13 11 9 7 10 8 6 7 7 8 8 7 6 7 9 8 8 8 8 6 7 8 8 9 12 10 9 9 9 11 10 10 10 10 11 11 9 9 8 9 9 9 9 9 8 7 7 8 8 9 9 10 11 10 10 10 9 10 8 8 8 8 8 8 7 8 8 8 9 10 9 8
6 4 4 8 1 2 3 1 3 5 3 1 2 7 2 5 6 10 14 5 11 9 11 16 15 15 13 10 10 8 8 7 7 5 6 8 6 5 6 7 7 8 8 8 8 7 7 8 10 13 10 9 9 9 11 11 11 10 9 10 9 8 9 9 9 9 8 8 7 8 8 8 7 8 9 8 9 10 9 9 10 10 10 9 9 9 9 10 9 8 8 8 8 8 8 8 7
8 9 7 6 3 4 6 3 0 2 2 2 2 3 2 2 3 4 5 6 11 10 9 10 13 14 14 11 10 10 8 8 6 6 4 6 5 5 6 5 6 7 8 8 8 8 7 8 10 12 9 8 9 10 10 11 10 9 9 9 8 8 8 8 8 8 7 7 7 7 8 7 7 7 7 8 7 8 8 8 8 9 10 10 10 10 10 10 10 9 9 9 9 8 9 9 8
5 4 9 7 4 4 5 3 6 4 3 2 1 5 4 6 3 2 5 4 12 12 11 10 11 11 12 11 9 11 9 8 6 5 5 5 6 6 5 4 5 6 7 8 8 8 8 8 9 11 10 9 10 9 9 10 9 9 9 9 8 7 8 8 7 7 7 8 7 7 7 6 6 6 7 6 8 8 9 8 10 11 11 11 11 11 10 10 11 10 8 9 8 8 9 9 8
1 3 7 6 10 5 1 4 4 4 4 2 1 2 1 2 4 5 2 10 12 12 12 12 11 10 12 10 9 9 7 8 7 7 6 6 6 6 5 5 5 6 7 7 8 8 9 8 9 10 9 8 9 9 9 8 8 8 9 10 9 8 7 7 8 7 7 7 7 7 7 7 6 6 6 7 8 8 8 9 9 10 10 10 10 11 11 10 10 9 9 10 10 8 9 11 9
5 6 9 6 4 5 4 1 1 2 4 2 2 3 2 1 2 3 9 13 14 13 11 11 12 12 11 10 8 10 7 7 8 6 5 7 6 6 5 6 6 6 6 7 7 7 8 8 9 10 9 9 9 8 8 8 8 10 9 9 8 9 9 9 8 8 8 7 7 7 7 7 7 7 7 6 7 8 8 9 8 9 10 9 9 10 10 10 10 9 9 10 11 12 11 11 10
6 6 7 3 2 5 3 2 1 2 4 3 3 4 6 5 2 5 9 15 16 14 14 11 13 11 11 10 9 10 9 8 8 6 5 6 6 6 6 6 7 7 7 8 9 7 7 7 9 10 9 10 8 8 8 7 8 9 8 9 9 8 8 8 8 7 6 7 7 6 7 7 8 7 6 6 7 8 8 10 9 10 9 10 10 9 10 10 10 8 9 9 9 10 10 10 11
10 8 5 8 3 8 2 3 1 1 2 2 2 4 2 7 4 10 12 15 15 15 15 15 16 13 13 12 11 10 10 9 8 7 6 6 6 7 7 7 7 7 8 9 8 8 8 8 9 9 9 7 7 6 6 7 8 7 6 7 8 8 7 7 7 7 6 7 7 7 7 7 6 7 7 7 7 8 8 8 9 10 10 10 10 10 10 9 10 9 10 10 10 11 10 10 9
4 7 9 4 4 3 4 6 3 6 3 1 4 4 4 7 6 16 14 18 17 16 17 15 16 13 12 12 11 12 11 10 8 7 6 7 8 7 6 7 9 9 9 8 8 8 9 9 9 9 8 7 8 8 7 8 7 7 7 7 8 8 8 7 7 6 7 7 7 8 7 7 7 7 7 7 8 8 8 9 8 9 10 10 10 9 9 10 8 8 9 10 11 12 12 11 10
4 5 5 2 1 2 6 1 3 4 5 4 2 3 4 5 9 15 18 18 15 18 14 11 11 13 13 14 12 11 11 10 9 8 8 8 9 9 8 7 8 8 7 7 8 8 8 8 9 8 9 8 8 7 8 7 7 7 8 9 8 8 9 8 9 7 7 7 7 7 8 7 6 8 7 8 9 9 9 10 8 9 9 10 10 10 9 9 9 9 9 10 11 12 13 11 11
7 7 6 7 6 5 9 7 3 3 5 3 5 6 4 4 2 13 14 14 13 14 14 10 11 13 13 11 11 13 11 9 9 8 8 9 10 9 7 7 7 8 8 9 7 7 8 8 8 7 8 7 7 7 7 7 7 7 8 8 8 8 8 9 9 8 8 8 8 8 7 7 9 8 8 9 9 8 8 8 9 9 10 10 11 10 11 9 10 11 11 10 10 12 13 13 12
Wind_Direction
342 335 318 318 20 88 54 1 337 309 50 254 318 239 264 247 260 348 268 345 323 299 328 356 26 59 148 183 118 111 51 105 197 134 213 218 132 129 130 131 138 145 149 146 148 143 141 136 131 127 126 124 122 118 117 117 116 113 112 109 108 107 104 103 104 103 104 105 104 105 105 106 106 106 106 106 105 103 104 105 105 105 105 104 104 102 102 101 100 98 95 94 92 88 86 87 93
340 335 337 354 348 23 1 98 99 333 38 30 245 103 250 286 359 255 253 256 224 340 29 78 74 83 83 100 124 127 49 47 165 117 109 122 118 98 138 141 149 149 147 144 142 134 138 140 133 128 127 125 123 122 119 118 116 110 110 111 112 109 103 103 102 101 97 100 102 101 101 102 104 103 104 102 101 101 100 105 106 103 104 104 104 105 108 105 105 104 101 96 92 90 88 88 92
343 359 359 20 31 66 94 28 260 142 168 247 264 215 323 317 235 300 282 253 225 163 156 73 104 72 73 76 47 34 220 91 107 102 113 138 123 159 144 141 143 140 140 140 131 129 134 140 134 130 128 126 125 122 119 117 113 110 109 114 113 107 101 99 96 97 98 97 99 100 101 101 101 100 100 99 99 98 101 104 107 106 106 105 107 108 105 109 110 105 102 94 91 87 84 82 81
26 35 90 56 146 25 57 32 99 137 179 224 284 256 225 225 264 257 280 184 157 71 319 10 36 313 103 64 114 72 94 121 93 135 128 166 179 145 144 141 132 134 132 130 128 128 128 139 133 129 127 127 125 122 119 117 115 114 110 112 111 104 100 97 95 97 98 99 99 99 99 99 98 100 99 96 98 97 94 100 103 105 103 102 103 102 100 100 106 104 96 93 89 87 83 80 79
40 316 90 89 111 354 110 168 149 126 211 184 222 264 241 233 157 301 261 124 289 351 29 80 64 343 79 119 143 117 164 110 134 102 99 84 115 137 132 131 132 135 130 130 123 118 132 136 130 126 127 127 124 120 119 119 118 112 111 112 112 107 104 101 98 99 101 102 101 100 99 97 98 98 99 99 98 98 96 94 96 97 100 98 94 92 89 90 91 93 91 88 85 82 80 78 76
47 37 352 87 203 181 61 87 202 204 218 167 225 242 246 234 167 310 283 322 237 81 143 67 163 196 41 10 65 125 147 145 147 96 137 149 129 124 125 124 124 128 127 116 119 118 133 134 125 125 126 123 121 119 118 121 117 112 110 114 115 110 106 103 102 106 105 101 102 100 97 94 92 92 98 99 100 100 98 96 93 95 98 99 96 93 89 83 83 85 87 86 82 80 79 77 72
305 36 353 33 27 55 181 162 201 210 255 167 221 238 130 195 238 354 324 3 327 61 34 96 104 117 79 15 51 59 319 151 127 166 98 126 114 117 119 119 124 124 120 118 113 113 129 116 117 121 123 122 120 119 120 118 115 113 113 114 114 110 107 103 102 107 111 108 102 101 99 97 95 97 98 98 94 97 98 97 97 93 92 94 88 80 79 79 80 81 81 81 81 81 80 74 64
70 120 299 107 197 58 208 196 235 169 269 187 234 266 265 183 231 357 278 41 295 67 78 120 94 81 100 154 135 294 2 8 99 97 110 118 118 112 106 115 120 123 115 108 105 113 125 109 113 120 120 121 121 120 120 118 115 114 114 113 114 114 110 106 102 107 107 107 107 103 100 94 92 92 92 92 95 92 92 92 92 89 87 77 74 72 72 76 76 78 78 79 80 78 77 71 63
358 85 297 83 153 40 57 210 240 244 280 304 278 237 264 214 191 213 282 235 326 113 178 176 133 70 132 95 79 296 23 57 90 112 119 121 122 114 101 113 128 120 119 114 108 105 105 113 112 116 119 120 120 119 118 117 116 116 114 113 105 100 111 108 106 107 108 108 109 105 102 96 90 88 86 85 87 83 84 87 86 84 78 77 73 72 71 73 75 75 75 74 73 75 76 71 64
29 86 248 148 123 214 335 278 158 232 217 230 238 252 238 201 212 199 230 288 218 140 197 70 124 114 126 116 117 295 75 102 110 117 121 124 113 101 114 117 130 133 119 113 107 104 113 120 112 112 114 119 119 119 119 118 120 118 115 113 99 92 103 107 102 109 109 112 111 108 103 96 93 88 85 85 80 78 76 77 82 84 78 70 67 64 62 65 66 67 71 71 67 67 68 71 69
42 12 143 104 59 212 212 261 256 303 260 281 265 241 241 221 186 184 195 227 151 144 89 105 72 126 126 116 90 16 100 121 123 129 126 109 112 115 111 122 128 125 120 111 110 110 112 118 119 114 114 118 112 110 116 119 120 118 116 117 113 101 101 109 111 110 113 115 114 112 108 106 100 88 82 79 79 78 76 73 71 75 75 74 68 60 54 52 53 57 61 63 65 63 66 71 73
42 64 30 113 194 174 239 219 280 271 284 310 276 222 218 200 157 172 217 210 140 129 146 175 158 134 97 116 152 112 114 111 111 125 114 109 107 107 116 113 113 114 112 115 112 111 118 121 122 126 121 112 113 117 120 122 123 126 127 124 116 103 101 106 113 109 112 112 113 108 106 103 95 91 90 86 83 81 81 79 78 79 80 78 72 63 54 45 45 48 52 54 53 57 59 68 71
120 113 86 100 228 156 214 334 258 268 324 272 236 264 170 152 179 196 192 186 140 124 166 204 146 155 113 142 113 113 129 112 101 108 109 110 111 112 115 117 118 120 115 112 111 111 109 112 111 117 124 122 120 120 122 126 126 133 130 122 120 113 111 113 113 110 106 105 109 111 105 104 105 102 98 94 91 87 86 88 86 83 82 80 70 62 54 47 43 44 46 46 43 43 54 55 60
118 177 132 216 62 162 146 230 294 359 294 249 237 277 307 196 223 186 149 144 170 152 171 143 146 120 95 111 150 183 162 118 109 104 106 107 113 117 116 116 115 113 113 114 115 109 107 105 101 97 107 111 122 125 128 131 135 131 125 123 125 117 116 115 108 104 107 109 113 115 117 113 110 107 105 103 100 99 94 94 89 84 78 67 59 51 48 44 40 37 39 40 39 36 44 49 50
146 156 83 123 242 52 243 158 227 185 258 228 253 335 335 265 243 187 166 143 117 153 118 76 159 118 184 161 174 195 154 130 118 112 110 113 117 120 125 122 119 116 114 116 117 115 112 105 102 104 106 105 110 116 127 134 137 129 124 128 125 119 121 118 115 118 118 122 124 123 124 122 116 112 108 106 110 106 106 98 101 96 92 83 55 44 44 39 34 32 34 34 33 35 46 55 51
146 85 88 163 250 168 263 189 192 83 265 211 274 333 339 347 63 140 251 143 129 116 127 165 212 175 152 181 176 150 133 125 121 116 116 117 119 121 126 127 121 118 116 118 116 111 109 105 106 108 108 112 114 116 121 129 136 134 133 129 129 132 128 119 119 127 132 131 137 133 115 99 90 96 105 107 117 106 96 95 89 93 89 83 70 55 50 34 26 28 31 28 31 38 58 65 65
72 80 161 67 252 153 253 170 143 222 254 276 288 1 357 350 327 25 81 111 130 147 68 13 308 38 149 113 123 119 126 121 121 120 123 129 134 133 132 128 127 117 119 115 115 110 109 114 113 106 109 110 108 109 117 129 135 138 138 139 144 143 133 124 128 132 130 126 104 98 95 81 79 70 57 25 87 86 112 108 91 72 72 83 80 57 46 32 25 31 27 27 31 49 61 53 65
70 156 127 238 198 158 208 183 189 211 270 295 328 332 328 43 358 121 72 50 82 90 76 65 45 52 87 99 101 117 124 126 130 133 137 143 142 138 140 139 134 134 125 122 111 110 114 115 118 110 107 108 114 105 104 115 116 124 124 128 127 137 136 133 125 127 117 87 105 95 87 97 73 68 58 55 64 61 8 109 99 82 27 17 21 38 61 30 25 29 26 32 38 55 52 49 35
136 116 118 227 178 239 160 200 224 336 274 278 298 307 245 178 145 209 104 124 115 91 74 75 91 83 90 101 115 121 129 132 138 144 150 152 150 155 149 142 136 127 124 123 123 123 120 119 117 122 119 121 124 106 94 92 100 105 103 108 117 132 118 103 90 98 74 93 98 96 91 52 67 52 56 134 162 131 13 314 98 92 29 323 338 3 31 29 32 29 27 45 46 64 63 44 53
222 125 224 244 212 240 206 221 258 207 266 298 298 304 191 166 113 87 131 136 126 136 132 123 131 127 126 124 128 132 136 138 146 152 154 156 157 153 151 149 136 134 127 132 130 125 121 115 117 119 123 125 122 109 99 106 111 115 109 90 90 87 79 101 104 102 85 79 80 61 61 88 75 33 8 8 44 67 30 1 354 31 14 13 355 20 14 23 27 29 27 35 48 80 82 56 69
269 156 200 228 220 231 258 219 242 259 234 262 279 311 140 174 166 117 138 105 178 223 179 160 162 147 140 136 136 139 141 147 154 156 153 152 141 124 135 141 141 132 129 113 120 123 119 112 118 124 122 127 126 121 125 119 120 106 93 89 91 90 94 91 96 91 85 83 84 58 30 56 47 34 27 10 48 77 43 15 15 26 16 11 353 346 353 6 18 10 15 23 25 74 92 90 82
112 211 188 221 232 236 253 240 237 243 235 264 310 359 275 87 73 134 151 157 190 195 204 260 146 147 147 145 146 144 148 151 156 150 146 146 141 132 129 116 106 99 119 119 122 116 120 119 120 126 132 135 131 95 113 141 120 98 92 107 90 88 97 94 79 76 90 104 112 109 69 42 52 61 53 29 54 50 115 147 2 15 30 347 340 327 333 355 12 7 13 13 11 353 98 128 134
226 309 245 231 231 235 250 210 197 118 347 327 309 267 97 127 116 173 347 286 319 69 64 88 134 142 136 133 141 150 149 151 148 149 142 143 148 144 142 128 132 138 134 121 118 119 124 125 126 124 126 123 110 101 91 88 97 105 106 109 103 84 89 100 78 71 71 70 87 118 100 42 39 19 356 55 81 50 197 212 238 307 310 304 322 326 323 334 341 349 347 346 338 353 14 121 141
175 244 243 291 204 233 253 274 309 329 14 282 254 34 156 139 129 242 51 328 97 82 94 108 127 135 137 135 146 143 137 134 145 134 136 138 141 140 140 136 133 125 128 142 142 129 115 126 123 117 111 109 105 93 86 86 73 94 138 131 111 151 138 128 107 86 83 86 109 118 110 118 130 53 353 347 344 22 328 344 317 311 308 299 312 315 314 318 333 346 334 334 349 2 348 33 136
190 247 251 267 227 240 260 255 274 251 241 252 352 107 95 132 128 94 7 80 96 104 115 124 132 136 135 137 137 140 134 126 113 115 106 113 120 124 119 123 128 136 144 146 137 122 120 124 120 120 114 109 87 99 96 82 95 87 75 112 153 162 131 162 129 130 122 121 105 106 121 103 73 86 4 321 355 332 331 8 26 291 305 298 324 287 266 289 312 328 346 337 340 343 341 337 344
194 220 223 258 272 276 273 294 268 207 247 217 61 69 101 107 98 55 317 118 116 126 126 132 138 143 147 143 138 131 128 122 121 123 123 124 127 133 137 131 129 140 139 130 124 135 128 129 128 120 116 119 112 104 101 96 104 121 94 128 230 156 161 139 138 136 137 117 109 114 109 141 155 162 194 159 103 300 314 317 317 300 283 275 320 289 299 288 301 325 322 332 338 335 331 325 336
183 222 231 244 259 300 296 216 296 133 203 209 121 120 140 291 64 154 281 331 131 134 133 136 147 147 140 130 129 124 117 128 130 122 120 131 137 143 143 130 141 135 124 117 128 126 131 122 120 121 125 124 116 120 135 135 141 116 151 168 178 132 149 140 138 126 109 142 151 132 141 153 164 186 228 253 211 230 271 294 299 317 312 323 171 300 343 281 289 283 303 317 324 324 312 322 327
178 204 285 277 291 257 247 302 272 141 251 217 132 151 50 338 68 158 157 303 147 140 146 149 151 150 135 129 117 112 108 113 119 125 130 137 142 144 144 146 132 129 126 120 123 131 129 126 126 122 121 126 128 133 138 138 155 178 152 173 177 157 139 125 125 141 207 222 183 146 146 164 226 227 216 224 249 252 244 245 301 325 304 329 26 233 299 289 260 275 286 278 287 308 306 312 322
257 185 298 301 341 341 262 211 274 173 248 166 149 80 33 355 149 154 149 135 137 139 145 155 151 141 136 125 115 107 108 111 111 119 125 120 125 137 139 139 135 131 118 123 127 126 125 131 127 132 129 134 138 142 136 139 185 196 160 187 181 156 141 142 182 206 211 310 318 32 336 283 276 263 266 259 285 298 308 308 305 280 297 303 342 359 324 309 304 315 291 251 284 266 274 284 278
47 47 111 341 355 333 275 239 147 113 237 174 175 129 268 297 138 161 124 143 119 128 143 153 159 84 35 111 111 100 96 100 105 117 116 126 138 140 132 132 130 129 132 124 121 119 125 123 121 130 142 142 153 142 137 159 194 203 169 182 218 163 163 206 246 203 188 150 17 8 264 271 267 269 278 298 330 332 322 329 322 337 285 286 356 300 307 261 267 274 270 306 274 271 272 273 289
183 253 58 127 7 261 279 123 150 143 230 188 48 169 273 310 148 147 162 157 149 141 111 20 34 40 343 12 87 93 85 82 89 102 115 121 126 127 127 128 132 133 140 142 134 131 136 138 144 141 147 149 155 149 158 160 202 205 122 56 328 283 270 242 285 37 72 94 82 246 232 247 263 272 286 293 319 353 326 332 351 339 258 214 212 247 253 288 287 281 283 282 290 286 283 278 272
8 92 284 322 164 279 295 201 169 138 308 187 91 61 231 190 178 167 172 164 161 125 130 108 70 9 333 6 75 81 86 85 86 88 85 91 110 122 126 129 132 139 148 144 136 136 136 139 130 116 131 142 121 130 91 90 118 116 50 266 217 275 295 278 330 36 52 90 190 236 281 296 303 303 307 320 314 329 315 310 315 323 306 263 224 231 239 266 278 286 266 234 284 284 273 283 271
352 142 269 228 161 257 343 161 152 120 125 5 163 183 108 182 183 163 169 158 143 107 83 93 124 134 4 334 76 93 92 81 82 86 86 92 91 95 100 113 125 126 126 127 130 128 115 134 127 113 119 137 117 97 85 84 80 68 149 264 218 163 249 308 57 133 113 185 205 295 335 297 302 304 311 315 302 306 307 296 306 319 328 325 293 248 249 262 270 285 293 277 210 284 301 297 307
241 12 168 212 173 253 260 300 68 84 97 141 16 120 197 174 162 159 166 146 121 103 108 121 155 143 126 324 90 92 93 104 107 104 95 88 86 80 82 95 93 101 103 96 99 103 100 85 82 97 105 98 100 105 108 115 115 111 54 22 292 144 136 55 15 50 112 135 145 159 222 251 283 298 298 298 303 307 302 311 321 319 335 336 327 333 327 299 254 239 280 269 244 259 285 293 297
182 124 95 272 278 192 244 207 253 38 35 86 359 128 175 151 142 113 36 132 103 106 133 157 147 130 108 139 109 108 105 100 104 102 101 90 83 89 89 90 92 90 90 96 97 100 93 84 71 59 68 73 83 111 115 111 100 70 63 33 24 47 80 94 81 23 28 112 135 177 171 203 241 268 280 284 283 304 333 328 321 307 333 316 315 317 312 308 269 247 250 260 223 234 246 254 265
166 162 174 164 153 216 221 260 307 71 65 55 62 163 145 118 105 47 55 54 67 108 131 132 160 141 144 139 129 119 106 100 104 102 98 94 94 87 81 79 84 90 92 93 93 85 83 79 81 70 65 94 99 97 92 69 58 47 13 352 6 18 38 50 58 45 3 15 41 106 139 158 199 228 251 271 279 267 256 276 285 289 293 316 306 306 304 302 296 290 277 267 274 262 239 253 239
124 88 105 179 186 283 285 290 321 31 80 39 8 85 72 48 53 91 75 94 91 84 168 155 147 142 144 138 123 114 110 115 107 95 88 88 92 94 93 85 82 79 78 76 73 74 73 82 81 67 54 64 85 112 112 118 90 38 35 40 348 351 17 36 45 27 30 27 28 63 98 122 141 146 128 203 239 294 301 300 288 299 294 269 256 259 266 279 266 263 277 259 283 296 277 185 220
127 110 109 231 189 219 347 7 342 353 103 47 59 76 55 55 56 75 14 90 81 162 188 136 62 36 139 123 112 103 108 99 88 81 83 84 88 88 79 77 79 80 72 75 77 77 76 68 69 64 56 63 63 74 102 92 81 152 128 105 96 33 36 40 40 34 35 40 43 41 45 53 56 62 54 65 64 100 2 280 263 267 253 263 280 293 315 315 311 307 311 308 198 274 291 258 235
84 160 176 114 270 244 289 34 11 357 77 105 95 82 58 56 70 61 58 76 118 65 344 83 94 336 334 113 109 108 97 95 87 87 87 86 91 85 81 78 74 79 77 73 75 73 66 64 66 66 50 66 68 73 78 74 52 56 83 73 95 102 63 87 80 66 55 58 50 43 42 43 47 51 46 51 71 74 65 38 26 355 344 328 326 329 331 327 323 322 321 309 304 235 253 245 226
128 87 119 212 251 125 245 340 12 21 106 142 112 89 70 76 71 73 38 59 90 101 56 46 74 63 291 111 106 104 104 100 96 96 94 88 88 91 82 76 77 78 72 66 63 70 63 58 59 61 60 55 69 62 68 65 83 87 85 90 71 81 71 67 69 57 50 52 49 43 39 34 37 41 39 39 39 32 22 16 358 350 339 329 333 335 332 325 319 321 321 316 312 309 306 261 201
305 155 153 215 239 227 152 169 68 66 63 108 100 73 79 29 96 83 65 57 94 108 112 60 28 40 5 37 85 85 98 97 99 98 98 87 81 82 85 81 78 73 70 69 66 67 74 68 63 63 54 45 47 64 73 70 65 54 56 61 62 65 45 38 43 33 31 49 54 41 33 35 35 36 30 33 34 28 18 9 9 358 356 349 335 333 328 318 312 295 294 301 307 307 302 290 230
212 246 185 190 183 99 88 66 78 34 27 288 108 77 82 103 83 120 85 82 80 113 112 81 48 42 357 41 49 91 86 88 87 87 98 97 92 86 81 85 80 80 71 63 70 66 65 61 56 54 53 40 38 43 70 74 61 63 60 48 40 44 51 36 39 21 12 30 35 33 43 37 35 34 30 25 29 29 22 9 13 16 6 358 356 344 327 327 323 326 316 303 296 287 285 286 285
137 251 175 168 128 123 118 138 74 62 140 229 99 130 240 120 149 161 117 100 100 75 97 99 89 63 61 84 18 77 94 91 83 82 83 87 87 86 75 75 75 74 64 65 65 65 60 62 56 57 51 42 31 36 44 74 67 53 63 69 61 61 70 54 48 39 29 30 31 34 38 35 34 30 25 22 21 17 19 17 19 24 15 5 350 354 346 339 331 325 321 317 311 295 282 284 289
204 242 160 133 114 128 186 117 116 190 178 54 83 119 128 169 175 146 125 107 112 115 118 92 78 100 69 19 86 115 98 92 89 81 76 74 68 86 86 77 74 70 67 66 69 63 63 61 60 56 51 49 37 37 45 51 78 72 58 60 57 48 48 56 39 37 33 38 36 36 33 33 30 29 25 21 17 12 18 23 21 23 24 8 3 1 348 332 325 327 319 311 299 298 300 286 286
213 192 162 169 151 171 153 122 128 151 117 350 237 262 72 123 143 137 150 125 140 172 158 157 142 135 129 113 328 105 97 97 102 99 84 75 77 76 83 80 76 73 64 59 68 66 68 68 71 68 58 52 41 41 49 48 60 67 69 61 59 41 38 39 46 38 36 27 40 31 33 34 35 28 27 23 16 14 21 23 24 23 23 11 10 6 5 1 352 345 341 333 324 314 305 303 290
268 165 155 101 80 84 148 138 98 17 74 237 195 199 107 258 142 153 169 163 172 186 172 156 145 135 110 115 134 87 89 95 92 97 91 83 78 82 77 79 71 70 63 67 65 71 69 71 65 62 54 52 47 46 52 54 53 57 62 58 61 49 33 30 37 38 32 27 36 26 21 24 26 26 23 21 17 14 21 22 21 24 23 19 17 8 10 5 353 349 347 336 327 317 301 293 293
125 118 95 56 40 52 31 61 96 56 296 232 189 194 125 188 186 174 169 195 185 150 150 148 141 126 119 121 138 111 100 106 103 92 92 94 85 88 87 81 81 72 67 64 62 63 67 65 70 66 55 56 53 52 54 55 54 54 60 57 56 48 39 38 38 35 32 32 31 25 22 19 20 23 18 20 18 12 18 21 19 22 33 25 18 15 9 350 349 349 344 351 350 346 343 339 329
132 149 123 96 15 21 30 349 39 176 262 258 183 179 158 182 209 217 212 146 176 165 165 155 146 137 131 133 132 110 108 110 98 105 110 98 92 81 82 84 80 75 68 64 64 61 58 61 67 66 50 49 50 54 58 54 56 55 57 58 58 52 49 49 46 43 36 39 34 29 21 22 21 22 21 20 15 12 16 17 16 24 29 12 16 12 2 357 353 349 355 356 349 347 353 348 334
138 111 92 128 227 72 249 50 237 204 177 306 272 136 37 251 216 203 193 176 170 172 160 151 142 136 129 135 120 112 124 117 105 93 108 104 92 87 75 80 83 80 81 75 66 66 63 60 66 67 53 47 50 55 59 56 54 52 54 58 58 58 56 55 52 50 38 42 34 33 26 25 17 21 19 18 14 14 17 15 17 20 17 7 3 2 356 356 358 352 352 351 347 346 345 335 326
143 158 158 133 142 182 208 261 158 332 288 274 169 236 201 282 283 316 192 188 147 131 127 130 134 134 132 130 125 127 126 116 102 105 93 99 99 83 69 70 88 93 94 93 86 75 69 63 62 68 60 52 55 54 57 59 55 55 56 60 60 58 59 57 55 54 46 46 42 40 35 28 27 23 18 20 7 13 23 22 24 25 21 13 10 4 360 357 356 352 347 347 344 339 337 334 324
187 102 146 173 129 161 208 194 201 206 193 297 277 133 229 141 247 303 292 146 120 116 115 113 116 119 118 121 125 118 116 109 111 108 98 87 79 70 71 76 77 89 94 87 83 82 80 69 66 67 62 50 55 55 57 61 58 57 58 60 59 62 61 58 56 52 47 46 41 43 36 30 30 22 24 16 12 19 22 20 27 30 22 17 13 10 4 1 360 354 352 343 335 337 336 332 328
249 161 77 115 214 130 143 203 142 169 135 72 193 182 328 20 301 288 143 123 115 120 124 124 119 122 123 126 131 119 116 122 117 108 95 84 86 87 86 79 77 79 85 87 85 86 83 80 77 71 69 62 57 59 58 62 62 62 58 58 57 59 59 60 56 49 47 46 46 42 37 31 26 23 24 23 18 19 21 21 31 31 20 16 14 10 7 4 359 358 355 353 342 342 336 336 332
216 117 203 203 140 97 87 65 68 105 72 203 138 89 211 149 350 126 146 129 135 128 130 125 128 134 130 128 130 120 124 118 113 106 105 109 106 106 106 104 100 92 85 86 84 83 88 86 82 75 68 61 59 59 61 61 61 61 55 57 55 56 55 54 53 49 45 43 45 41 38 33 28 26 25 23 21 23 21 28 27 25 19 13 10 8 5 1 356 355 352 347 352 347 341 337 331
116 183 213 96 114 108 128 221 348 53 176 222 100 167 150 146 198 203 148 140 145 141 143 137 133 136 133 137 141 137 141 128 112 110 118 118 111 105 93 86 85 90 96 84 78 72 73 80 81 79 67 67 59 61 60 58 61 61 56 54 54 57 57 55 52 49 43 47 43 42 39 39 33 27 28 28 30 33 30 30 25 21 18 14 11 6 4 359 355 354 348 348 346 344 345 342 339
168 182 183 145 209 236 294 92 230 137 263 276 311 194 207 192 179 158 158 146 155 149 142 143 147 149 145 146 143 136 131 123 121 124 129 118 101 83 78 84 87 89 82 87 88 86 83 77 76 77 79 72 71 68 68 59 55 61 57 53 53 51 51 53 50 46 44 47 44 40 42 41 39 36 30 30 32 31 29 27 26 22 18 14 9 8 2 360 358 353 353 350 349 346 340 334 335
38 101 167 179 140 217 113 199 173 115 215 69 300 120 225 191 180 173 168 164 159 153 154 159 156 147 146 144 145 142 138 134 132 137 131 112 93 85 92 103 102 100 98 92 90 88 84 82 81 81 74 70 65 60 60 59 51 56 53 50 47 48 47 50 44 39 40 41 41 43 39 37 37 36 33 30 32 29 24 24 22 23 18 14 10 7 3 359 355 359 350 352 351 348 341 334 327
146 150 174 215 199 234 107 31 117 170 166 182 157 278 251 238 171 178 176 171 172 163 154 148 145 147 145 144 147 142 138 140 141 139 126 104 99 101 101 106 104 98 93 91 89 88 87 83 78 73 78 70 66 61 61 60 58 54 56 52 48 45 46 46 45 35 36 34 37 40 39 35 30 33 27 30 30 27 25 23 20 21 18 14 8 6 3 358 357 353 354 352 352 349 345 341 334
174 154 186 168 108 121 160 226 40 86 103 194 141 241 275 262 266 180 170 167 156 160 146 133 137 142 142 145 146 141 137 140 136 130 118 111 111 111 111 103 99 98 98 94 89 90 85 81 79 79 74 68 75 61 64 64 63 59 58 55 51 50 49 47 45 34 36 35 35 38 35 31 35 27 27 27 27 25 21 18 19 18 16 14 10 6 4 359 357 353 351 355 347 344 346 343 340